FENGYUN 1C DEB, 37061

Orbit data source: Space-Track

FENGYUN 1C DEB, 37061 is space debris in SSO originally from a launch on Mon, 10 May 1999 UTC launched from the Taiyaun Space Center, China (TSC). Fengyun 1C debris stems from the Chinese weather satellite Fengyun-1C, which was intentionally destroyed by a Chinese anti-satellite missile in 2007. This event dramatically increased the amount of space debris, with thousands of trackable fragments posing hazards to satellites and human spaceflight. The Fengyun 1C debris cloud has become a focal point in discussions about space sustainability and the need for international regulations to prevent the creation of new debris.

Loading next visibility...
Identifier
37061, 1999-025EEV
Orbit
SSO
Country
Flag of CNCN / PRC
Related business
Manufacturer
Unknown
Mission
Spacecraft
Bus & Motor
Unknown
Mass
Unknown
Launch date (UTC)
1999-05-10 (27 years ago)
Launch vehicle
Unknown
Launch site
Taiyaun Space Center, China (TSC)
Object type
Payload
Rocket body
Debris
Shape & HBR
Unknown shape, 0.1 m
Radar Cross Section
Small (<0.1 m²)

Expand to show TLE details & history
Last TLE update: 1 week ago

TLE from 1 week ago
0 FENGYUN 1C DEB
1 37061U 99025EEV 26163.82588723  .00001269  00000-0  66527-3 0  9990
2 37061  98.0595 191.7062 0794273 273.7179  77.3555 13.15329771105477
Epoch: 2026-06-12T19:49Z
TLE epoch observation values (Epoch: 2026-06-12T19:49:16.656Z)
Latitude
-0.00004°
Longitude
-6.76296°
Altitude
1,120.157 km
Speed
7.333 km/s
True Right ascension
12h 46m 49s
True Declination
0° 00' 00"
Sunlit
Object was in daylight at epoch
Visualization orbit readout
Latitude
Unknown
Longitude
Unknown
Altitude
Unknown
Speed
Unknown
Apparent Right ascension
Unknown
Apparent Declination
Unknown
Sunlit
N/A
Visualization observer readout
Local Sidereal Time
22:43:03
Azimuth
Unknown
Elevation
Unknown
Doppler factor
Unknown
Orbital elements
Apogee altitude
1,801.757 km
Perigee altitude
597.957 km
Semi-major axis
7,577.994 km
Eccentricity
0.07943
Inclination
98.0595°
RAAN
191.7062°
Arg. of periapsis
273.7179°
True anomaly
86.39582°
Mean anomaly
77.3555°
Eccentric anomaly
81.86051°
Mean motion
3.29012 °/min
Orbital period
109.42 mins
BSTAR
0.00066527
Loading maneuver chart data...
Computing Atmospheric mass density...

Documentation

Showing up to 5 results
|